"Pseudo-MPEC" for TMG0047

Created 2021 May 10 23:34:50 UT using Find_Orb

Click here for an explanation of pseudo-MPECs

TLEs are available for this object, and for most of the other objects listed on these pages. Note that, because of sparse data and unpredictable non-gravs, the TLEs are probably only good for a few weeks, perhaps months, around the date of observation.

 
 Astrometry: 
     TMG0047* C2021 05 097iAstrometryODa(:)^/)QAZMH4_=nrmIi%l/\MjJ3yu\VX@ebKa381
     TMG0047  C2021 05 09vyc08XeN(.-t=iamtuG7J)G(#gDredacted;ON@(7*@qc_yEm,se381
     TMG0047  C2021 05 09OuLCJ!jaKsb.vOR%#M-nW(@tg??59UhR8\BS-ooFkHKIO3q`;k[\381
     TMG0047  C2021 05 091qkmK\RSN4u\uERkkwmpv)r\xc=5Nr,se2t!Mclick*,@'GrLlos381
     TMG0047  C2021 05 09cpoFBRy_I4huta;`[p$b0e@lflY8vfhereav.mOm=c[l8w-xXXWA381
     TMG0047  C2021 05 09Xg`SYLyx_;j5'Q2iEafor7%r.qIpo(NL#`n=explanationmMCG%381
     TMG0047 KC2021 05 10.91497514 25 14.60 -02 25 09.6    ~5AMT 17.6 GVNEOCPJ95
     TMG0047 KC2021 05 10.91566214 25 27.37 -02 27 09.3    ~5AMT 17.5 GVNEOCPJ95
     TMG0047 KC2021 05 10.91789914 26 09.14 -02 33 41.9    ~5AMT 17.6 GVNEOCPJ95
     TMG0047 KC2021 05 10.91848114 26 19.98 -02 35 23.8    ~5AMT 17.2 GVNEOCPJ95
     TMG0047 KC2021 05 10.91899414 26 29.58 -02 36 53.7    ~5AMT 17.7 GVNEOCPJ95
     TMG0047 KC2021 05 10.91962414 26 41.34 -02 38 44.2    ~5AMT 17.2 GVNEOCPJ95

Station data:
(381) Tokyo-Kiso  (N35.797229 E137.625420)  Japan.  Observer J. Beniyama.
   1.05-m f/3.1 Schmidt + CCD.
(J95) Great Shefford  (N51.474969 W1.447003)  UK/England.  Observer P.
   Birtwhistle. 0.41-m f/6.3 Schmidt-Cassegrain + CCD.

Orbital elements:  TMG0047
   Perigee 2021 May 10.270998 +/- 0.000391 TT =  6:30:14.2 (JD 2459344.770998)
Epoch 2021 May 10.0 TT; AMR 32.69 +/- 0.624 m2/kg            Gray
M 276.726833206 +/- 0.11            (J2000 equator)
n 307.282799714 +/- 0.0191          Peri.  349.961597 +/- 0.048
a 46943.77444 +/- 1.95              Node    38.548816 +/- 0.009
e   0.57921834 +/- 0.000121         Incl.   26.104628 +/- 0.0006
P1687.01m/1.172d           H 33.2   G  0.15   U 10.1
q 19753.07911 +/- 6.15    Q 74134.46976 +/- 4.87
From 12 observations 2021 May 9-10 (32.9 hr); mean residual 0".614
Residuals in arcseconds: 
210509 381 .400+ .079+    210509 381 .729- .087+    210510 J95 .121+ .356-
210509 381 .763- .254+    210509 381 .139- .682+    210510 J95 .186- .180-
210509 381 1.38+ 1.99-    210510 J95 .141+ .044+    210510 J95 .200+ .053-
210509 381 .038+ .736+    210510 J95 .480- .476+    210510 J95 .206+ .071+

Ephemerides (geocentric):
Date (UTC) HH   RA             Dec           delta elong  mag " sig PA
---- --------  ------------   ------------  ------ -----  --- --------
2021 05 10 12  11 08 16.261   +20 58 34.32   52978 109.4 18.5 54.5 108
2021 05 10 13  11 38 42.344   +18 45 21.93   57843 116.7 18.4 41.2 111
2021 05 10 14  12 04 03.457   +16 37 06.85   61997 122.9 18.4 32.0 114
2021 05 10 15  12 25 58.496   +14 34 19.45   65485 128.3 18.4 25.3 116
2021 05 10 16  12 45 30.242   +12 36 20.26   68344 133.2 18.3 20.4 118
2021 05 10 17  13 03 21.052   +10 42 08.68   70603 137.7 18.3 16.7 120
2021 05 10 18  13 20 01.224   +08 50 39.54   72286 142.0 18.2 14.0 121
2021 05 10 19  13 35 53.775   +07 00 47.93   73409 146.0 18.1 12.1 122
2021 05 10 20  13 51 17.358   +05 11 29.82   73983 149.8 18.0 10.8 122
2021 05 10 21  14 06 28.217   +03 21 40.67   74015 153.6 17.9 10.1 122
2021 05 10 22  14 21 41.651   +01 30 13.27   73504 157.2 17.8 9.92 122
2021 05 10 23  14 37 13.322   -00 24 05.12   72446 160.7 17.7 10.4 121
2021 05 11 00  14 53 20.636   -02 22 36.34   70831 164.0 17.5 11.6 119
2021 05 11 01  15 10 24.519   -04 26 55.88   68643 166.6 17.3 13.7 118
2021 05 11 02  15 28 52.000   -06 38 58.47   65861 168.1 17.2 16.9 116
2021 05 11 03  15 49 20.425   -09 01 04.74   62457 167.3 17.1 21.8 115
2021 05 11 04  16 12 44.887   -11 36 07.19   58394 164.0 17.1 29.0 113
2021 05 11 05  16 40 32.423   -14 27 27.54   53632 158.5 17.1 40.0 111
2021 05 11 06  17 15 11.330   -17 38 13.58   48126 150.7 17.1 57.6 109
2021 05 11 07  18 01 16.733   -21 07 42.88   41849 140.2 17.1 87.4 105
2021 05 11 08  19 08 04.095   -24 35 02.59   34853 125.1 17.1  143  99
2021 05 11 09  20 54 27.892   -26 05 38.33   27508 101.7 17.3  255  87
2021 05 11 10  23 44 36.965   -18 19 52.92   21370  62.7 18.7  459  71
2021 05 11 11  03 12 52.019   +04 44 10.17   20314  13.2 28??  533  64
2021 05 11 12  06 10 03.098   +21 41 24.15   25389  41.6 21??  343  75
2021 05 11 13  08 10 55.497   +26 03 50.05   32628  68.6 19.2  202  88
2021 05 11 14  09 29 37.949   +25 30 36.23   39792  85.9 18.7  130  97
2021 05 11 15  10 23 51.212   +23 33 58.61   46292  98.0 18.6 89.6 103
2021 05 11 16  11 04 00.737   +21 18 14.37   52022 107.3 18.5 65.5 107
2021 05 11 17  11 35 38.776   +19 02 13.09   56995 114.9 18.5 49.9 111
2021 05 11 18  12 01 48.585   +16 51 04.39   61253 121.2 18.4 39.1 113
2021 05 11 19  12 24 18.028   +14 45 37.74   64840 126.8 18.4 31.5 115
2021 05 11 20  12 44 14.882   +12 45 18.26   67794 131.8 18.3 25.9 117
2021 05 11 21  13 02 24.422   +10 49 05.28   70145 136.4 18.3 21.7 118
2021 05 11 22  13 19 18.726   +08 55 52.28   71918 140.8 18.2 18.6 120
2021 05 11 23  13 35 21.918   +07 04 32.96   73129 144.9 18.1 16.5 120
2021 05 12 00  13 50 53.341   +05 14 02.21   73791 148.8 18.1 15.0 121
2021 05 12 01  14 06 09.639   +03 23 14.95   73910 152.6 17.9 14.2 121
2021 05 12 02  14 21 26.300   +01 31 04.06   73488 156.3 17.8 14.0 120
2021 05 12 03  14 36 58.971   -00 23 42.41   72521 159.9 17.7 14.6 120
2021 05 12 04  14 53 04.835   -02 22 24.57   70999 163.3 17.5 15.9 119
2021 05 12 05  15 10 04.312   -04 26 34.97   68908 166.3 17.4 18.1 118
2021 05 12 06  15 28 23.501   -06 38 03.80   66229 168.1 17.2 21.6 116
2021 05 12 07  15 48 38.098   -08 59 04.91   62933 167.9 17.1 26.8 115
2021 05 12 08  16 11 40.212   -11 32 21.13   58988 165.1 17.1 34.4 114
2021 05 12 09  16 38 51.206   -14 21 01.83   54353 159.9 17.1 45.9 112
2021 05 12 10  17 12 27.803   -17 28 05.35   48985 152.5 17.1 64.0 109
2021 05 12 11  17 56 39.431   -20 53 16.06   42855 142.4 17.1 94.3 106
2021 05 12 12  18 59 40.665   -24 19 40.69   35998 128.1 17.1  149 100
2021 05 12 13  20 38 19.011   -26 14 51.93   28707 106.4 17.2  259  89